RH
42 44 45 45 42 39 38 36 31 28 29 33 33 34 34 31 29 29 31 33 35 37 38 38 38 39 40 41 43 48 53 53 53 54 53 52 54 59 59 60 61 63 63 62 60 59 61 63 63 62 63 61 59 57 56 56 56 57 57 56 55 54 54 54 53 52 51 51 51 49 48 48 49 47 46 46 46 47 47 47 47 48 48 47 47 46 44 43 42 41 41 40 39 37 36 35 34
43 43 44 45 42 40 40 35 31 31 31 34 36 36 36 33 31 30 29 31 33 36 38 38 38 39 41 42 42 41 46 53 56 58 57 52 53 57 58 60 61 62 61 61 61 61 61 61 62 61 60 58 57 57 57 57 56 55 55 54 54 54 52 52 51 50 50 51 51 49 49 50 50 49 49 48 48 48 47 47 47 47 47 47 47 47 46 45 44 42 41 40 40 39 37 36 37
44 44 43 45 44 42 40 33 31 33 33 36 38 37 38 37 34 31 30 31 32 36 38 37 36 38 39 37 38 38 41 49 52 56 57 54 54 55 55 59 61 60 59 59 60 61 60 58 59 60 58 56 56 56 56 56 56 55 54 54 54 53 52 51 50 50 49 50 51 50 50 50 50 50 51 51 50 49 49 48 48 47 46 46 47 47 47 46 46 45 42 41 41 41 40 38 39
44 44 43 46 46 44 39 34 33 34 35 38 39 38 40 40 37 36 36 35 34 36 37 36 36 37 36 33 36 36 39 46 49 51 52 52 52 51 51 54 56 56 55 56 58 59 59 57 56 57 55 54 54 55 56 56 56 56 55 54 55 55 53 52 51 49 49 50 50 51 51 51 51 51 52 52 52 51 50 50 50 48 47 46 46 47 48 48 48 48 46 44 44 44 44 41 41
44 44 43 45 46 43 38 35 35 34 36 39 39 40 41 41 41 41 39 37 35 35 37 38 37 37 36 35 35 35 38 43 46 47 47 49 49 48 48 49 49 51 54 55 56 56 58 57 55 55 53 52 55 56 56 56 56 57 55 55 56 56 55 52 51 49 49 50 51 52 53 53 53 54 54 55 55 55 54 53 52 50 50 49 49 50 50 50 51 51 49 47 46 46 47 44 43
44 42 42 44 44 42 38 35 35 36 38 39 41 42 43 42 41 40 38 38 37 36 38 39 37 36 37 38 37 36 39 39 41 43 41 44 46 47 47 47 47 48 52 55 56 55 56 56 53 53 50 50 54 55 55 55 55 55 55 55 56 56 55 53 51 49 49 50 51 53 54 55 55 56 57 58 58 58 58 57 56 55 54 53 52 52 51 52 53 53 53 51 48 47 48 46 46
43 41 40 40 40 39 37 36 37 37 38 39 41 42 42 41 39 38 37 38 39 39 39 40 40 37 36 39 38 40 39 36 38 38 35 39 43 45 46 47 47 47 49 52 54 55 58 56 53 53 50 49 51 52 52 53 54 53 54 54 56 55 54 52 51 51 50 50 52 52 53 54 55 57 58 59 59 60 60 60 59 59 58 56 55 55 54 54 54 54 54 53 51 50 49 49 47
42 40 39 36 33 35 36 37 37 38 37 39 41 42 41 40 39 38 37 37 39 40 39 40 43 38 37 39 39 43 41 35 36 34 31 33 37 41 44 46 46 46 48 50 52 55 57 55 53 54 50 49 51 52 51 52 52 52 53 54 55 56 54 53 52 52 52 52 52 52 53 53 54 55 56 56 57 58 58 58 58 58 57 57 57 57 58 57 56 55 54 53 53 51 51 51 50
41 39 37 32 30 32 35 36 37 37 37 40 41 41 41 40 40 40 39 39 40 42 40 40 41 38 39 42 41 45 43 37 36 35 33 32 34 38 41 43 43 44 47 47 49 51 53 52 51 52 50 50 51 51 51 52 52 51 52 53 55 55 55 54 54 54 53 53 53 54 54 54 54 54 54 54 54 55 55 56 56 55 55 55 56 57 58 58 57 56 54 52 51 51 52 52 53
41 39 34 29 30 31 33 35 36 36 37 41 41 41 41 41 42 41 41 40 41 44 44 43 42 39 39 42 43 46 45 40 39 40 39 36 35 39 40 42 40 41 44 45 47 46 45 48 48 49 49 49 49 49 50 51 52 52 52 53 54 54 54 55 55 55 54 54 55 55 56 56 56 55 55 54 54 54 54 55 55 55 55 55 56 56 57 57 57 56 55 52 50 49 50 51 53
41 38 34 27 28 31 33 35 36 37 38 40 41 42 42 43 44 43 43 42 43 44 44 44 43 41 40 42 44 47 47 43 43 43 42 39 39 41 42 43 42 43 45 44 47 47 45 45 47 48 47 47 47 47 47 49 50 51 52 53 53 54 55 55 56 55 55 55 55 56 56 56 56 56 55 55 55 54 54 54 53 54 54 56 56 56 56 57 56 56 57 55 53 51 50 51 51
38 36 33 27 26 30 33 35 36 37 38 40 42 42 43 44 45 45 44 44 45 43 41 42 42 42 41 41 45 48 48 47 48 46 42 41 42 43 42 44 44 44 46 45 45 49 49 46 48 49 47 46 46 47 48 50 50 51 51 52 53 53 54 54 54 54 54 54 54 54 54 54 54 54 54 53 54 54 54 54 53 53 53 55 56 57 57 56 56 57 57 57 56 55 52 50 50
38 34 32 28 26 25 28 33 35 36 36 38 39 40 42 42 44 44 44 44 44 42 41 42 43 42 40 41 44 46 47 48 50 48 44 43 44 43 42 44 44 45 46 45 43 46 48 49 50 49 49 49 48 49 50 51 52 52 52 52 53 53 53 53 53 53 53 53 53 52 52 52 52 52 52 52 52 53 54 54 55 55 54 55 55 57 57 58 58 60 61 61 60 59 55 52 50
36 34 32 30 28 25 25 29 31 33 33 35 36 37 39 40 43 44 44 44 43 43 41 40 42 41 41 43 44 44 45 47 49 48 46 44 44 44 43 45 45 45 46 45 44 43 44 47 49 49 51 52 51 52 52 52 52 53 53 53 53 53 53 55 55 55 55 55 55 55 55 55 55 55 55 54 54 54 54 54 55 56 56 55 55 56 57 60 63 65 65 65 65 63 61 58 56
36 34 31 31 29 26 25 26 28 31 32 32 33 36 38 39 42 43 43 43 43 44 42 37 38 37 38 41 40 42 43 45 47 46 45 43 44 44 44 47 47 47 48 47 46 45 45 46 47 50 53 54 54 55 54 54 53 54 53 52 52 52 53 55 56 56 57 59 60 61 61 61 61 61 60 59 58 56 55 54 54 55 56 56 57 57 56 60 64 66 67 70 71 69 67 64 62
36 33 30 31 28 24 23 24 26 29 30 30 32 35 37 38 40 42 42 43 43 42 39 36 34 33 34 39 38 41 43 43 44 43 41 41 42 43 44 47 48 48 49 49 48 48 47 47 48 51 55 57 57 57 56 57 56 54 53 53 55 54 54 55 55 56 57 58 59 60 60 60 61 61 61 61 60 59 57 56 55 56 58 61 61 56 55 58 61 64 67 73 76 72 70 69 66
33 30 28 30 27 23 21 22 24 27 28 28 31 33 34 36 38 41 41 41 42 40 38 35 33 33 36 40 37 37 41 42 42 40 40 41 41 42 44 46 47 48 49 50 49 48 49 49 49 51 55 57 59 58 57 59 58 56 56 56 57 57 56 55 55 55 55 55 56 56 55 55 56 57 57 58 58 58 58 57 56 57 60 64 61 56 57 60 62 65 67 70 71 68 68 68 68
28 26 27 28 27 22 20 20 23 25 27 28 29 30 32 33 35 38 38 38 41 42 42 37 35 37 38 40 37 36 40 41 40 37 36 39 40 41 43 45 45 45 46 49 49 49 49 49 49 50 53 56 58 59 59 60 59 58 57 57 58 59 58 56 56 54 54 55 55 55 55 55 54 54 55 55 55 56 56 57 57 58 61 61 56 58 62 62 63 67 69 69 66 63 63 63 65
25 24 26 28 27 22 18 20 23 25 26 26 28 30 30 32 32 33 33 34 38 41 43 39 39 42 41 42 39 38 40 40 39 35 33 36 37 38 39 40 40 40 41 43 47 49 49 49 48 48 51 53 56 58 60 62 61 59 57 56 57 58 58 58 56 54 55 56 56 56 55 56 56 55 55 55 55 56 56 58 58 59 62 58 55 61 67 65 66 67 67 69 65 61 61 61 62
23 22 24 26 27 24 20 20 23 24 25 25 28 30 32 33 32 31 30 31 34 39 42 41 41 44 44 44 40 39 41 40 39 37 34 33 33 34 35 36 37 36 37 38 43 48 48 47 48 47 48 51 53 55 57 60 61 60 57 55 54 54 55 56 56 54 55 55 55 55 54 56 57 57 57 57 57 57 57 58 58 58 59 57 55 60 65 66 68 69 70 69 66 62 61 61 59
23 21 23 25 26 26 23 22 24 24 25 28 30 32 34 33 32 31 30 30 32 36 41 42 43 44 45 44 42 41 41 41 40 40 38 34 33 33 33 34 35 35 37 38 42 48 47 44 46 45 46 49 52 54 55 56 58 59 57 55 54 53 54 55 55 56 56 56 56 57 57 57 57 57 57 57 58 58 59 58 59 59 59 58 55 56 61 63 65 69 71 71 68 62 61 61 59
22 21 24 26 26 23 22 22 24 25 28 31 32 33 33 31 30 31 29 30 31 33 38 41 44 46 43 42 42 41 42 43 42 41 39 35 34 35 35 35 35 36 37 39 41 46 46 44 45 45 46 48 50 52 53 53 53 54 55 54 53 53 54 55 56 57 58 58 58 59 60 60 60 60 57 57 57 57 58 58 60 60 60 59 56 55 57 59 62 65 67 69 68 61 58 60 59
20 22 26 27 24 21 22 23 24 27 30 32 33 32 32 31 31 32 31 32 33 33 37 41 44 46 43 40 41 43 43 44 42 40 38 35 35 35 36 37 37 37 38 39 41 44 45 46 47 46 46 47 47 48 48 49 49 50 51 52 52 53 55 56 56 57 58 58 58 57 58 59 61 61 60 58 58 56 56 56 58 59 59 59 57 55 55 57 59 61 63 65 66 60 56 58 60
20 24 27 26 22 23 24 24 26 28 30 32 33 33 34 31 30 33 35 36 35 34 37 41 44 44 42 40 41 43 44 43 41 38 36 36 36 35 37 39 39 38 39 40 42 45 46 47 49 49 47 47 48 47 47 47 48 48 49 52 53 55 56 57 56 56 57 57 56 56 55 56 56 57 58 58 58 57 56 55 54 56 56 57 57 56 56 56 57 57 59 60 60 58 56 58 60
19 23 25 23 24 26 27 26 27 30 32 33 34 35 35 30 27 30 34 37 37 35 36 41 43 43 42 41 41 42 42 40 39 39 39 39 38 37 38 39 39 38 39 40 43 45 47 49 50 51 50 48 49 50 50 49 50 50 51 53 55 56 57 56 55 55 56 56 55 55 55 56 55 54 54 55 57 58 57 57 56 54 54 55 56 56 56 57 57 56 55 54 54 54 54 57 59
20 21 22 23 25 29 30 28 30 32 34 34 33 34 33 29 26 27 30 34 36 34 35 38 42 44 42 41 41 41 41 41 39 39 41 40 39 39 39 40 39 37 38 40 42 44 46 48 48 49 50 49 48 50 52 52 52 52 53 54 55 56 57 56 53 53 54 54 54 54 54 54 54 53 52 52 54 56 57 57 57 56 55 54 54 55 56 56 57 57 56 54 52 52 53 56 59
21 22 23 25 28 32 32 32 33 35 36 36 34 34 31 27 25 26 29 33 34 34 35 38 40 43 43 41 40 39 41 41 40 40 42 43 41 40 40 40 39 37 37 39 40 41 42 45 46 47 48 49 49 49 51 53 52 52 53 54 55 54 54 52 50 49 49 49 49 50 52 53 52 50 52 52 52 52 54 56 57 56 55 54 54 55 56 56 57 59 59 58 56 55 54 55 58
21 21 24 27 30 33 34 33 34 35 37 37 36 34 31 28 27 28 30 32 35 35 36 38 39 40 41 43 42 42 42 42 41 42 42 42 42 41 41 40 39 38 37 38 39 40 41 42 43 46 47 49 49 49 49 51 50 51 52 53 54 52 50 49 48 47 47 48 49 49 52 55 54 51 51 52 51 50 50 53 55 56 56 54 53 55 56 56 57 60 61 62 62 60 58 56 57
20 20 24 28 31 34 34 33 34 35 35 37 37 33 31 30 30 30 30 31 32 34 34 37 38 37 37 39 42 43 45 45 44 42 40 40 41 42 43 42 41 39 37 37 38 41 44 42 43 47 50 50 49 48 49 50 50 49 50 51 51 50 49 48 48 48 48 49 52 52 53 56 57 55 52 51 52 53 52 52 54 56 57 56 54 53 54 55 56 58 60 62 63 64 62 59 58
20 20 24 29 33 35 35 33 34 34 34 37 39 35 34 33 32 31 31 30 30 30 30 32 34 35 36 37 40 42 44 45 42 40 40 40 41 42 43 43 43 42 40 38 36 40 44 43 42 45 47 46 45 46 48 49 50 50 50 48 46 45 45 44 44 46 47 49 51 51 51 52 55 59 59 57 58 57 56 55 56 58 58 58 55 54 53 53 54 56 58 60 63 64 64 62 61
20 23 26 29 34 37 36 34 34 35 34 36 39 36 36 36 34 32 32 30 29 27 27 27 29 32 34 35 37 39 41 42 40 38 36 35 36 38 39 40 40 40 41 40 37 36 40 41 39 39 40 41 42 44 46 48 49 48 46 43 42 41 40 41 42 43 45 46 46 46 49 51 56 61 61 61 63 60 57 57 57 58 61 61 57 54 53 52 52 53 54 56 58 60 63 63 63
20 25 30 31 33 36 35 34 35 35 36 36 38 37 37 37 36 35 33 30 28 27 26 25 25 28 31 32 32 34 36 39 40 38 35 34 34 34 35 36 36 37 38 40 38 34 36 38 37 36 38 39 41 43 44 46 45 43 40 39 38 38 39 40 40 40 41 42 42 44 49 53 59 62 59 59 61 61 59 57 57 58 61 64 63 59 56 53 52 51 51 51 52 54 57 59 61
19 23 30 31 31 35 35 34 34 35 36 37 38 39 39 39 37 37 35 32 30 27 26 25 24 27 29 31 31 32 34 36 37 36 35 34 33 31 30 31 32 35 36 38 38 36 36 37 37 38 38 39 41 42 43 43 42 40 39 39 40 41 43 44 44 46 47 48 48 49 54 55 57 62 63 62 59 59 58 55 54 56 59 63 67 67 64 61 57 54 52 50 48 50 53 54 55
20 20 25 28 29 32 34 34 33 35 37 38 40 41 42 40 38 39 37 34 32 29 27 27 26 27 27 28 28 30 30 31 31 32 32 31 29 27 27 28 29 33 36 36 37 39 39 39 38 37 38 40 42 42 42 41 40 39 41 44 45 47 49 50 51 53 54 55 52 51 53 53 52 54 60 62 59 54 53 50 49 50 55 61 63 64 66 67 64 60 59 56 53 51 50 51 52
18 18 22 26 28 30 32 32 33 34 37 39 40 43 45 43 39 40 38 36 35 32 30 28 27 27 28 28 28 28 27 28 29 29 30 29 28 28 28 29 30 31 34 34 35 37 39 39 38 35 36 39 40 40 40 39 38 38 43 46 47 47 47 48 49 49 50 50 50 48 48 48 47 48 50 56 57 51 46 44 43 44 50 57 59 59 61 65 67 66 66 67 63 55 50 50 52
18 18 21 23 26 28 30 31 31 33 36 39 38 41 46 45 40 40 39 38 36 36 35 31 29 29 29 30 30 29 29 30 30 29 29 29 29 29 29 30 31 31 32 33 33 33 35 37 37 36 37 38 38 38 38 38 37 37 40 44 43 41 41 43 45 46 47 47 47 47 47 47 47 46 47 50 52 49 44 38 36 39 44 48 53 55 57 60 66 70 70 69 67 59 52 52 53
20 18 19 21 23 26 28 30 31 32 36 39 39 41 44 44 40 39 39 39 38 38 39 35 32 32 32 32 32 31 30 31 31 31 31 30 30 30 30 30 31 32 32 32 32 31 33 35 37 37 38 38 38 38 39 41 39 35 36 38 37 35 38 41 42 42 42 42 42 43 43 43 42 41 41 42 42 43 40 34 32 36 40 42 44 46 49 53 59 65 66 67 69 64 58 56 55
20 19 18 19 21 23 26 29 32 32 35 40 41 42 43 42 40 40 39 37 37 38 39 38 35 34 34 34 35 34 32 33 33 33 33 32 32 31 31 32 32 33 33 33 33 32 34 35 35 35 36 37 38 38 40 41 38 34 33 33 33 33 34 35 35 35 35 35 35 35 35 35 36 35 35 34 34 34 34 31 30 31 35 40 39 38 40 44 49 54 60 66 71 70 65 59 58
18 19 18 18 19 23 25 27 30 31 34 40 41 41 43 42 40 40 38 36 36 39 40 39 38 37 35 35 37 37 35 36 36 35 35 34 34 33 33 34 34 35 34 34 35 35 35 35 34 34 35 36 37 37 39 39 36 33 33 32 32 31 31 31 31 31 31 31 30 30 30 30 31 31 30 29 28 27 28 28 29 29 30 33 33 32 34 37 42 46 53 62 68 70 67 60 58
17 18 18 19 20 21 23 25 29 32 33 38 40 40 42 42 40 40 38 37 36 39 40 40 41 40 38 37 37 37 38 37 37 36 36 36 36 35 35 35 36 35 35 35 35 35 35 35 35 36 36 37 37 37 36 36 34 32 30 30 29 29 28 28 28 28 27 27 26 26 26 25 26 26 26 25 25 25 25 27 27 28 30 31 29 30 30 36 45 49 52 59 65 67 67 64 60
18 19 19 20 22 21 22 25 29 32 35 36 38 41 42 40 40 38 37 37 36 37 38 39 41 42 41 41 39 39 39 38 38 37 37 37 36 35 34 35 35 35 35 35 35 34 33 33 32 31 32 32 32 31 30 29 28 27 26 25 24 24 24 23 23 23 22 21 21 20 20 20 21 22 21 22 23 25 26 26 26 27 32 35 33 31 28 31 42 50 54 60 65 66 68 68 66
20 20 19 20 23 23 24 25 26 32 38 37 36 39 40 38 38 36 36 37 37 37 37 37 39 42 44 44 43 41 40 39 39 38 37 36 36 35 33 33 34 33 33 33 32 30 27 25 23 22 22 22 21 21 20 20 20 19 19 19 19 18 18 18 18 17 17 17 17 17 17 17 17 17 18 19 21 23 25 26 26 27 32 35 36 37 33 28 34 46 56 62 67 72 75 74 72
20 21 21 21 22 24 25 24 25 32 37 37 34 34 36 36 35 34 35 36 36 37 37 36 38 41 45 46 44 42 42 41 40 39 38 37 36 35 33 32 33 33 33 30 26 23 22 20 18 18 17 16 16 16 16 16 16 16 16 16 16 16 16 16 16 16 16 16 15 16 16 16 16 17 17 19 20 22 23 25 25 26 28 30 34 41 40 33 33 44 56 63 70 76 79 78 75
20 21 22 23 23 25 26 24 26 30 34 36 34 31 33 33 32 32 34 36 37 37 37 37 39 41 43 46 44 41 42 42 41 40 39 37 36 34 32 32 33 32 30 26 23 23 23 21 19 18 17 16 17 16 16 16 16 16 16 15 15 15 15 15 15 15 15 15 15 16 16 17 18 19 20 20 21 22 23 25 27 26 26 28 32 38 43 42 39 40 48 57 67 73 77 79 79
20 21 23 25 26 26 25 25 28 31 33 38 37 32 32 31 29 32 35 38 39 38 36 38 41 41 42 45 45 42 42 43 42 41 40 38 36 33 31 30 30 29 26 24 25 25 24 23 21 19 19 18 17 16 15 15 15 15 15 14 14 13 13 13 14 14 15 16 17 18 18 19 19 20 21 22 22 24 25 27 28 27 27 29 32 36 42 46 44 39 41 49 62 71 74 77 81
20 22 23 24 26 26 25 26 30 33 31 33 34 32 31 29 27 31 36 38 36 33 33 37 40 42 43 44 45 43 42 44 44 43 41 39 35 32 28 26 27 27 25 25 27 27 26 26 24 22 20 19 18 17 16 14 14 14 14 14 13 13 13 13 14 15 16 18 19 20 20 20 20 21 22 22 24 27 29 30 30 30 33 34 37 40 43 45 44 41 41 45 53 63 68 72 79
19 21 22 23 25 26 28 30 32 34 30 28 30 31 31 28 24 28 33 34 31 28 31 36 39 43 45 44 45 44 42 44 45 44 42 39 34 29 25 24 26 27 26 28 28 28 28 27 25 23 21 20 19 19 17 15 14 14 13 13 12 13 13 14 14 15 16 18 20 20 20 20 20 22 24 25 27 29 30 31 30 31 34 37 39 44 46 46 46 45 47 48 48 53 62 69 77
19 19 21 23 28 29 31 32 32 32 29 26 26 29 33 29 22 24 29 30 31 30 31 35 38 41 45 45 44 44 43 44 45 44 43 38 31 26 24 25 27 27 27 28 29 29 28 26 24 23 22 21 20 19 18 16 15 14 14 13 13 13 13 14 14 15 17 19 20 20 20 20 20 22 24 26 28 30 31 30 30 32 35 39 42 46 48 47 48 50 55 55 52 53 61 68 75
19 20 22 24 28 29 28 28 29 28 26 25 24 28 34 31 22 21 25 27 31 33 32 34 37 39 43 44 43 44 44 44 44 44 42 36 28 24 26 27 28 29 29 29 30 28 27 26 25 24 23 22 21 20 18 17 16 15 14 13 13 14 14 15 15 17 18 18 19 20 21 21 21 22 23 25 27 29 31 31 32 34 36 39 43 46 48 47 47 52 58 60 58 59 63 66 72
18 19 22 23 25 25 25 26 27 24 23 24 24 29 33 28 21 21 22 23 29 33 35 35 37 39 41 41 41 43 45 44 45 45 41 33 27 24 27 29 31 31 31 31 30 28 27 26 25 24 23 22 21 20 19 18 17 16 15 14 15 15 15 16 17 18 18 18 19 21 23 24 24 24 24 25 26 27 30 32 34 35 35 37 40 44 46 46 46 48 54 59 61 62 64 65 68
21 20 20 21 21 21 22 23 22 22 24 26 27 29 27 23 24 25 24 25 27 31 35 37 38 40 40 41 42 43 45 45 46 45 40 33 27 26 28 31 32 33 33 31 30 28 27 27 27 26 25 23 22 21 19 18 17 16 15 15 16 17 17 18 18 18 17 18 19 22 25 27 28 28 27 27 28 29 31 34 36 37 36 36 38 41 44 45 47 47 49 55 59 61 63 64 68
24 23 20 20 21 21 22 23 23 23 24 28 30 27 23 21 23 24 24 25 26 27 31 33 37 40 41 42 44 45 45 45 47 46 39 33 30 29 30 31 33 34 34 31 30 28 28 29 28 27 26 24 23 21 20 19 17 16 15 16 18 18 19 19 19 18 18 18 20 22 27 29 31 31 31 30 30 33 36 38 40 41 40 40 40 41 42 43 46 47 48 50 55 59 61 61 64
25 24 22 23 23 24 27 27 28 26 23 26 28 24 22 20 20 23 25 24 25 26 27 30 34 38 40 41 44 46 44 44 46 45 39 34 34 33 32 32 33 34 33 31 30 30 30 30 29 28 27 25 23 21 20 19 17 16 17 18 19 20 20 20 20 19 19 19 21 23 27 30 32 33 32 32 33 35 38 40 41 43 44 46 46 46 46 45 45 46 47 48 50 55 59 61 63
25 23 24 26 26 27 29 30 31 29 25 26 27 24 23 21 19 23 26 25 24 26 26 29 33 37 39 40 43 44 44 43 44 43 40 37 37 36 35 34 33 33 32 31 32 32 31 31 30 29 28 25 23 21 21 19 17 17 17 19 20 21 21 21 21 21 21 21 22 25 28 31 33 33 32 33 35 37 38 38 39 41 44 48 50 51 49 49 48 46 47 47 47 47 50 54 58
24 23 25 26 27 29 31 30 30 28 27 27 26 25 25 22 20 21 23 24 25 26 27 29 32 34 36 39 40 40 42 42 42 41 40 39 38 37 36 35 34 32 32 33 34 34 33 32 30 29 27 24 22 21 21 19 17 17 18 20 21 22 22 22 22 22 22 23 24 28 32 34 35 35 34 35 38 38 38 38 40 42 45 48 50 51 50 50 50 48 47 48 49 48 47 49 50
24 23 24 25 26 28 29 28 26 26 28 27 25 25 23 21 21 20 20 24 25 27 29 30 32 33 35 38 39 39 39 39 39 41 41 40 39 38 36 36 34 32 33 35 35 35 35 33 31 29 26 23 20 20 20 19 17 17 18 21 22 23 23 23 22 23 24 25 26 30 35 37 38 37 37 38 41 41 41 41 44 46 48 52 54 56 56 55 55 53 51 51 52 52 51 50 50
25 25 26 26 27 28 26 27 26 25 28 28 26 23 19 20 25 24 22 24 25 27 29 31 31 33 36 39 39 39 38 37 39 40 41 41 41 39 37 36 34 33 36 37 37 38 36 33 30 28 26 22 20 19 19 19 18 18 19 22 24 24 24 24 24 25 25 26 27 33 38 40 39 39 39 40 42 42 42 45 47 48 50 55 62 65 66 66 65 63 60 58 56 57 57 55 53
25 26 26 27 28 28 27 29 28 26 27 27 26 22 17 20 28 27 24 24 25 26 29 30 31 32 35 38 39 38 38 38 39 40 42 42 41 40 39 37 35 35 38 39 40 40 37 33 30 28 25 21 19 19 19 19 18 18 20 22 24 25 25 25 26 26 27 26 29 35 40 41 40 39 39 41 43 43 43 46 50 51 53 60 67 72 74 74 72 71 68 64 61 60 59 59 57